Fremont, MI

9:19 PM EDT on August 22, 2019 (GMT -0400)
Fremont

Weather History for KFFX - May, 2019

Change the Weather History Date:

Friday, May 17, 2019

  Actual Average (KMKG) Record (KMKG)
Temperature  
Mean Temperature 59 °F -  
Max Temperature 67 °F 68 °F 88 °F (1962)
Min Temperature 51 °F 45 °F 28 °F (1983)
Degree Days  
Heating Degree Days 6    
Growing Degree Days 9 (Base 50)    
Moisture  
Dew Point 42 °F    
Average Humidity 55    
Maximum Humidity 100    
Minimum Humidity 27    
Precipitation  
Precipitation 0.00 in - - ()
Sea Level Pressure  
Sea Level Pressure 29.85 in    
Wind  
Wind Speed 6 mph ()    
Max Wind Speed 12 mph    
Max Gust Speed 16 mph    
Visibility 9.5 miles    
Events      
Averages and records for this station are not official NWS values.
T = Trace of Precipitation, MM = Missing Value Source: Averaged Metar Reports

Daily Weather History Graph

Daily Weather History Graph

Search for Another Location

Airport or City:

Astronomy

May. 17, 2019 Rise Set
Actual Time 6:17 AM EDT 9:03 PM EDT
Civil Twilight 5:44 AM EDT 9:36 PM EDT
Nautical Twilight 5:02 AM EDT 10:19 PM EDT
Astronomical Twilight 4:14 AM EDT 11:07 PM EDT
Moon 7:47 PM EDT (5/17) 5:53 AM EDT (5/17)
Length of Visible Light 15h 52m
Length of Day
14h 46m
Waxing Gibbous, 98% of the Moon is Illuminated
May 17
Waxing Gibbous
May 18
Full
May 26
Last Quarter
Jun 3
New
Jun 10
First Quarter

Hourly Weather History & Observations

Time (EDT) Temp. Dew Point Humidity Pressure Visibility Wind Dir Wind Speed Gust Speed Precip Events Conditions
12:16 AM 54.0 °F 54.0 °F 100% 29.68 in 0.8 mi ENE 3.5 mph - N/A   Mostly Cloudy
12:35 AM 56.5 °F 56.5 °F 100% 29.68 in 2.5 mi NE 4.6 mph - N/A   Mostly Cloudy
12:55 AM 57.2 °F 57.2 °F 100% 29.70 in 3.0 mi NNE 3.5 mph - N/A   Overcast
1:15 AM 57.6 °F 57.6 °F 100% 29.71 in 4.0 mi NNE 3.5 mph - N/A   Overcast
1:36 AM 57.2 °F 57.2 °F 100% 29.73 in 5.0 mi NE 3.5 mph - N/A   Mostly Cloudy
1:55 AM 57.4 °F 54.1 °F 89% 29.74 in 10.0 mi NNE 10.4 mph - N/A   Scattered Clouds
2:15 AM 57.6 °F 48.9 °F 73% 29.75 in 10.0 mi NNE 8.1 mph - N/A   Scattered Clouds
2:36 AM 57.6 °F 47.5 °F 69% 29.76 in 10.0 mi NE 8.1 mph 11.5 mph N/A   Mostly Cloudy
2:56 AM 57.7 °F 47.1 °F 68% 29.76 in 10.0 mi NE 8.1 mph - N/A   Overcast
3:16 AM 57.6 °F 46.4 °F 66% 29.75 in 10.0 mi NE 9.2 mph - N/A   Overcast
3:35 AM 57.7 °F 45.1 °F 63% 29.76 in 10.0 mi NNE 9.2 mph - N/A   Overcast
3:55 AM 57.6 °F 44.6 °F 62% 29.77 in 10.0 mi NE 6.9 mph - N/A   Overcast
4:16 AM 57.6 °F 44.2 °F 61% 29.78 in 10.0 mi NNE 5.8 mph - N/A   Overcast
4:35 AM 57.2 °F 44.8 °F 63% 29.79 in 10.0 mi NNE 4.6 mph - N/A   Overcast
4:55 AM 56.5 °F 45.3 °F 66% 29.80 in 10.0 mi North 5.8 mph - N/A   Overcast
5:16 AM 55.9 °F 43.9 °F 64% 29.80 in 10.0 mi NNE 10.4 mph - N/A   Overcast
5:36 AM 55.2 °F 42.8 °F 63% 29.80 in 10.0 mi North 10.4 mph 16.1 mph N/A   Overcast
5:55 AM 54.5 °F 42.1 °F 63% 29.82 in 10.0 mi North 5.8 mph - N/A   Overcast
6:16 AM 54.5 °F 41.2 °F 61% 29.83 in 10.0 mi North 8.1 mph - N/A   Overcast
6:36 AM 53.6 °F 42.6 °F 66% 29.83 in 10.0 mi North 8.1 mph - N/A   Overcast
6:55 AM 52.5 °F 41.4 °F 66% 29.83 in 10.0 mi North 6.9 mph - N/A   Overcast
7:16 AM 52.3 °F 41.0 °F 65% 29.84 in 10.0 mi North 6.9 mph - N/A   Overcast
7:36 AM 52.3 °F 40.3 °F 64% 29.84 in 10.0 mi North 8.1 mph - N/A   Overcast
7:55 AM 51.8 °F 38.8 °F 61% 29.85 in 10.0 mi NNE 8.1 mph - N/A   Mostly Cloudy
8:15 AM 52.0 °F 38.8 °F 61% 29.85 in 10.0 mi North 9.2 mph - N/A   Mostly Cloudy
8:36 AM 52.7 °F 38.8 °F 59% 29.85 in 10.0 mi NNE 10.4 mph - N/A   Overcast
8:56 AM 53.1 °F 38.7 °F 58% 29.85 in 10.0 mi North 9.2 mph - N/A   Scattered Clouds
9:15 AM 52.9 °F 39.7 °F 61% 29.85 in 10.0 mi North 11.5 mph 16.1 mph N/A   Scattered Clouds
9:36 AM 53.8 °F 40.8 °F 62% 29.85 in 10.0 mi NNE 6.9 mph - N/A   Clear
9:56 AM 54.7 °F 39.7 °F 57% 29.87 in 10.0 mi NNE 9.2 mph - N/A   Clear
10:15 AM 54.7 °F 39.0 °F 56% 29.88 in 10.0 mi NNE 6.9 mph - N/A   Clear
10:36 AM 55.8 °F 39.0 °F 53% 29.88 in 10.0 mi North 6.9 mph - N/A   Clear
10:56 AM 56.7 °F 38.7 °F 51% 29.87 in 10.0 mi North 8.1 mph - N/A   Clear
11:15 AM 58.1 °F 38.7 °F 48% 29.86 in 10.0 mi North 9.2 mph - N/A   Clear
11:56 AM 61.0 °F 39.6 °F 45% 29.87 in 10.0 mi North 4.6 mph - N/A   Clear
12:16 PM 63.0 °F 37.9 °F 40% 29.87 in 10.0 mi North 6.9 mph - N/A   Clear
12:35 PM 63.3 °F 37.0 °F 38% 29.88 in 10.0 mi NNW 4.6 mph - N/A   Clear
12:55 PM 63.5 °F 35.4 °F 35% 29.90 in 10.0 mi Calm Calm - N/A   Clear
1:16 PM 65.3 °F 37.2 °F 35% 29.91 in 10.0 mi NW 5.8 mph - N/A   Clear
1:36 PM 65.7 °F 36.5 °F 34% 29.90 in 10.0 mi Calm Calm - N/A   Clear
1:55 PM 65.3 °F 31.3 °F 28% 29.90 in 10.0 mi Calm Calm - N/A   Clear
2:16 PM 67.1 °F 32.0 °F 27% 29.90 in 10.0 mi North 4.6 mph - N/A   Clear
2:36 PM 67.8 °F 34.0 °F 29% 29.89 in 10.0 mi Calm Calm - N/A   Clear
2:56 PM 67.3 °F 32.4 °F 27% 29.90 in 10.0 mi WNW 6.9 mph - N/A   Mostly Cloudy
3:16 PM 66.0 °F 39.2 °F 37% 29.89 in 10.0 mi WNW 10.4 mph - N/A   Overcast
3:35 PM 64.4 °F 39.7 °F 40% 29.91 in 10.0 mi West 10.4 mph - N/A   Overcast
3:56 PM 66.2 °F 40.8 °F 40% 29.91 in 10.0 mi NW 11.5 mph - N/A   Mostly Cloudy
4:16 PM 65.3 °F 39.6 °F 39% 29.92 in 10.0 mi WNW 11.5 mph - N/A   Mostly Cloudy
4:35 PM 65.1 °F 39.6 °F 39% 29.91 in 10.0 mi WNW 6.9 mph - N/A   Mostly Cloudy
4:56 PM 65.1 °F 39.4 °F 39% 29.89 in 10.0 mi NNW 6.9 mph - N/A   Scattered Clouds
5:16 PM 64.4 °F 39.7 °F 40% 29.88 in 10.0 mi North 8.1 mph - N/A   Scattered Clouds
5:35 PM 63.9 °F 40.8 °F 43% 29.88 in 10.0 mi North 8.1 mph - N/A   Mostly Cloudy
5:55 PM 63.0 °F 41.4 °F 45% 29.87 in 10.0 mi North 9.2 mph - N/A   Mostly Cloudy
6:16 PM 62.6 °F 41.7 °F 46% 29.87 in 10.0 mi North 8.1 mph - N/A   Mostly Cloudy
6:35 PM 62.6 °F 41.4 °F 46% 29.86 in 10.0 mi North 8.1 mph - N/A   Clear
6:55 PM 62.6 °F 42.3 °F 47% 29.86 in 10.0 mi North 5.8 mph - N/A   Scattered Clouds
7:16 PM 63.7 °F 41.7 °F 45% 29.88 in 10.0 mi WNW 6.9 mph - N/A   Mostly Cloudy
7:35 PM 63.3 °F 41.2 °F 44% 29.89 in 10.0 mi West 5.8 mph - N/A   Overcast
7:55 PM 63.3 °F 39.6 °F 42% 29.90 in 10.0 mi WNW 6.9 mph - N/A   Mostly Cloudy
8:16 PM 61.7 °F 41.4 °F 47% 29.90 in 10.0 mi NNW 4.6 mph - N/A   Clear
8:36 PM 59.4 °F 42.6 °F 54% 29.91 in 10.0 mi North 5.8 mph - N/A   Clear
8:55 PM 59.0 °F 41.2 °F 52% 29.91 in 10.0 mi North 5.8 mph - N/A   Clear
9:16 PM 57.6 °F 42.6 °F 57% 29.93 in 10.0 mi NNW 3.5 mph - N/A   Clear
9:36 PM 55.6 °F 42.8 °F 62% 29.93 in 10.0 mi North 4.6 mph - N/A   Clear
9:55 PM 55.8 °F 42.1 °F 60% 29.93 in 10.0 mi North 4.6 mph - N/A   Scattered Clouds
10:16 PM 56.3 °F 42.1 °F 59% 29.93 in 10.0 mi North 5.8 mph - N/A   Overcast
10:36 PM 55.9 °F 43.0 °F 62% 29.93 in 10.0 mi North 3.5 mph - N/A   Overcast
10:55 PM 56.8 °F 40.6 °F 55% 29.92 in 10.0 mi NE 4.6 mph - N/A   Overcast
11:15 PM 57.4 °F 38.1 °F 49% 29.93 in 10.0 mi NE 5.8 mph - N/A   Overcast
11:36 PM 57.6 °F 36.1 °F 45% 29.94 in 10.0 mi NE 5.8 mph - N/A   Overcast
11:55 PM 57.2 °F 35.6 °F 44% 29.94 in 10.0 mi NE 6.9 mph - N/A   Overcast